Location: Les Jeannots
(43.2262°N, 5.5774°E)
Time: 08:10:27
(UTC+00:00)

Delta 2 Rocket - Pass Details

Date: 05 July 2020
Orbit: 415 x 808 km, 35.6° (Epoch: 04 August)

Event Time Altitude Azimuth Distance (km) Brightness Sun altitude
Rises 20:21:19 0° 248° (WSW) 2,410 6.9 -9.5°
Reaches altitude 10° 20:23:47 10° 233° (SW) 1,508 5.7 -9.8°
Maximum altitude 20:26:29 22° 180° (S) 951 4.1 -10.2°
Enters shadow 20:28:05 16° 141° (SE) 1,166 4.3 -10.4°
